Temp
6 5 5 5 5 4 4 4 4 4 5 5 5 5 5 5 5 5 5 5 4 4 4 3 3 3 3 3 3 3 3 3 2 2 2 2 2 2 2 2 2 2 2 2 2 3 3 3 3 3 3 3 3 3 3 3 3 3 3 3 3 3 3 3 3 3 3 3 3 3 3 3 3 3 3 3 3 3 3 3 3 3 3 3 3 3
5 5 4 4 4 4 4 4 4 4 4 4 4 4 4 4 4 4 4 4 4 4 4 3 3 3 3 3 3 3 3 3 2 2 2 2 2 2 2 2 2 2 2 2 2 2 2 2 2 2 2 2 2 2 2 2 2 2 2 2 2 2 2 2 2 3 3 3 2 2 2 3 3 2 2 2 2 3 3 3 3 3 3 3 3 3
4 4 3 3 4 4 4 4 4 4 4 4 4 4 4 4 4 4 4 4 4 3 3 2 2 2 3 3 3 3 3 2 2 2 2 1 1 1 1 1 1 1 1 2 2 2 2 2 2 2 2 2 2 2 2 2 2 2 2 2 2 2 2 2 2 2 2 2 2 2 2 2 2 2 2 2 2 2 2 2 2 2 2 2 3 3
3 3 3 3 3 3 4 4 4 4 4 4 4 3 3 3 3 3 3 3 3 3 2 2 2 2 3 2 2 3 2 2 2 2 1 1 1 1 1 1 1 1 1 1 1 1 1 1 1 1 1 1 1 1 1 1 1 1 2 2 2 2 2 2 2 2 2 2 2 2 2 2 2 2 2 2 2 2 2 2 2 2 2 2 2 2
3 3 3 3 3 3 3 4 4 4 3 3 3 3 3 3 3 3 3 3 3 2 2 2 2 2 2 2 2 2 2 2 2 1 1 1 1 1 1 1 1 1 1 1 1 1 1 1 1 1 1 1 1 1 1 1 1 1 1 1 1 1 1 1 1 1 1 1 2 2 2 2 2 2 2 2 2 2 2 2 2 2 2 2 2 2
3 3 3 3 3 3 3 3 3 3 3 3 2 2 2 2 2 2 2 2 2 2 2 1 2 2 2 2 2 2 2 2 1 1 1 1 1 1 1 1 1 1 1 1 1 0 0 0 0 0 0 0 -0 -0 0 0 0 1 1 1 1 1 1 1 1 1 1 1 1 1 1 1 1 1 1 1 1 1 1 1 2 2 2 2 2 2
2 2 3 2 2 2 3 3 3 3 3 2 2 2 2 2 1 1 1 1 1 1 2 1 1 2 2 2 2 2 1 1 1 1 1 1 1 1 1 1 1 1 0 0 0 0 0 0 -0 -0 -0 -0 -0 -0 -0 -0 0 0 0 0 0 0 0 0 0 0 1 1 1 1 1 1 1 1 1 1 1 1 1 1 1 1 1 1 2 2
2 2 2 2 2 2 3 3 3 3 3 2 2 2 2 1 1 1 1 1 1 1 1 1 1 1 2 2 2 1 1 1 1 1 1 1 1 1 1 1 1 1 0 0 -0 -0 -0 -0 -0 -0 -1 -1 -1 -1 -0 -0 -0 -0 -0 -0 -0 -0 -0 -0 -0 0 0 0 0 1 1 1 1 1 1 1 1 1 1 1 1 1 1 1 1 1
3 2 2 2 2 2 2 2 2 2 2 2 2 2 2 1 1 1 1 1 1 1 1 1 1 1 1 1 1 1 1 1 1 1 1 1 1 1 1 1 1 0 0 -0 -0 -0 -0 -0 -1 -1 -1 -1 -1 -1 -1 -0 -0 -0 -1 -1 -1 -1 -1 -0 -0 -0 -0 -0 0 0 0 0 0 0 0 0 0 0 0 0 0 1 1 1 1 1
3 3 2 2 2 2 2 2 2 2 2 2 2 2 1 1 1 1 1 1 1 1 1 1 1 1 1 1 1 1 1 1 1 1 1 1 1 1 1 1 1 0 0 -0 -0 -0 -0 -1 -1 -1 -1 -1 -1 -1 -1 -1 -1 -1 -1 -1 -1 -1 -1 -1 -1 -1 -1 -0 -0 -0 -0 -0 0 0 0 0 0 -0 0 0 0 0 0 1 1 1
3 2 2 2 2 2 2 2 2 1 1 1 1 1 1 1 1 1 1 0 1 1 1 1 1 1 1 1 1 1 1 1 1 1 1 1 1 1 1 1 0 0 0 -0 -0 -0 -0 -1 -1 -1 -1 -1 -1 -1 -1 -1 -1 -1 -1 -1 -1 -1 -1 -1 -1 -1 -1 -1 -1 -1 -0 -0 -0 -0 -0 -0 -0 -0 -0 -0 -0 -0 0 0 1 1
2 2 2 2 2 2 2 2 2 1 1 1 1 1 1 1 1 1 1 0 0 1 1 1 1 1 1 1 1 1 1 1 1 1 1 1 1 1 0 0 0 0 -0 -0 -0 -0 -0 -0 -1 -1 -1 -1 -1 -1 -1 -1 -1 -1 -1 -1 -1 -1 -1 -1 -1 -1 -1 -1 -1 -1 -1 -1 -1 -0 -0 -0 -0 -0 -0 -0 -0 -0 -0 0 0 1
2 2 2 2 2 1 2 1 1 1 1 1 0 0 0 0 1 1 1 1 1 1 1 1 1 1 1 1 1 1 1 1 1 1 1 0 0 0 0 -0 -0 -0 -0 -0 -0 -0 -0 -0 -1 -1 -1 -1 -1 -1 -1 -1 -1 -1 -2 -2 -2 -2 -2 -1 -1 -1 -1 -1 -1 -1 -1 -1 -1 -1 -1 -1 -1 -1 -0 -0 -0 -0 -0 -0 0 0
2 2 1 1 1 1 1 1 1 1 0 0 0 1 1 1 1 1 1 1 1 1 1 1 1 1 1 1 1 0 0 0 0 0 0 0 0 -0 -0 -0 -0 -1 -1 -0 -0 -0 -1 -1 -1 -1 -1 -1 -1 -1 -1 -1 -1 -2 -2 -2 -2 -2 -2 -2 -1 -1 -1 -1 -1 -1 -1 -1 -1 -1 -1 -1 -1 -1 -1 -1 -1 -1 -1 -0 -0 0
1 1 1 1 1 1 1 1 1 1 1 0 1 1 1 1 1 1 1 1 1 0 0 0 0 0 0 0 0 0 0 0 0 0 -0 -0 -0 -0 -0 -1 -1 -1 -1 -1 -1 -1 -1 -1 -1 -1 -1 -1 -1 -1 -2 -2 -2 -2 -2 -2 -2 -2 -2 -2 -1 -1 -1 -1 -1 -1 -1 -1 -1 -1 -1 -1 -1 -1 -1 -1 -1 -1 -1 -1 -1 -0
1 1 1 1 1 1 1 1 1 1 1 1 1 1 1 1 1 1 1 1 0 0 -0 -0 -0 -0 -0 -0 -0 -0 -0 -0 -0 -0 -0 -0 -0 -1 -1 -1 -1 -1 -1 -1 -1 -1 -1 -1 -1 -1 -1 -1 -1 -2 -2 -2 -2 -2 -2 -2 -2 -2 -2 -2 -1 -1 -1 -1 -1 -1 -1 -1 -1 -1 -1 -1 -1 -1 -1 -1 -1 -1 -1 -1 -1 -1
2 1 1 1 1 1 1 1 1 1 1 1 1 1 1 1 1 1 1 1 0 -0 -0 -0 -1 -1 -0 -1 -1 -1 -1 -1 -0 -0 -0 -1 -1 -1 -1 -1 -1 -1 -1 -1 -1 -1 -1 -1 -1 -1 -1 -1 -1 -2 -2 -2 -2 -2 -2 -2 -2 -2 -2 -2 -2 -1 -1 -1 -1 -1 -1 -1 -1 -1 -1 -1 -1 -1 -1 -1 -1 -1 -1 -1 -1 -1
2 2 2 1 1 1 1 1 1 1 1 1 1 1 1 1 1 1 1 1 0 -0 -0 -0 -0 0 0 -0 -1 -0 -0 -1 -1 -1 -1 -1 -1 -1 -1 -1 -1 -1 -1 -1 -1 -1 -1 -1 -1 -1 -1 -1 -1 -2 -2 -2 -2 -2 -2 -2 -2 -2 -2 -2 -2 -2 -2 -2 -2 -1 -1 -1 -1 -1 -1 -1 -1 -1 -1 -1 -1 -1 -1 -1 -1 -1
2 2 2 2 2 1 1 1 1 1 1 1 1 1 1 1 1 1 1 1 1 0 -0 -0 -0 0 0 0 0 -0 -0 -0 -1 -1 -1 -1 -1 -1 -1 -1 -1 -1 -1 -2 -2 -2 -1 -1 -1 -1 -1 -1 -2 -2 -2 -2 -2 -2 -2 -2 -2 -2 -2 -2 -2 -2 -2 -2 -2 -2 -2 -2 -1 -1 -1 -1 -1 -1 -1 -1 -1 -1 -1 -1 -1 -1
3 2 2 2 2 2 1 1 2 2 2 2 1 1 1 1 1 0 0 0 0 0 0 0 0 0 0 0 0 0 -0 -0 -1 -1 -1 -1 -1 -1 -1 -1 -1 -1 -2 -2 -2 -2 -2 -1 -1 -1 -1 -2 -2 -2 -2 -2 -2 -2 -2 -2 -2 -2 -2 -2 -2 -2 -2 -2 -2 -2 -2 -2 -2 -2 -2 -1 -1 -1 -1 -1 -1 -1 -1 -1 -1 -1
3 3 3 4 3 3 2 2 2 2 2 2 2 1 1 1 1 0 0 0 0 0 0 0 0 0 0 0 0 -0 -1 -1 -1 -1 -1 -2 -2 -1 -2 -2 -2 -2 -2 -2 -2 -2 -2 -1 -1 -2 -2 -2 -2 -2 -3 -3 -2 -2 -2 -2 -2 -2 -2 -2 -2 -2 -2 -2 -2 -2 -2 -2 -2 -2 -2 -2 -2 -2 -2 -2 -1 -1 -1 -1 -1 -1
3 4 4 4 3 3 3 3 3 2 2 2 2 1 1 1 1 1 1 1 1 0 0 0 0 0 -0 -0 -0 -0 -1 -1 -1 -1 -1 -2 -2 -1 -2 -2 -2 -2 -2 -2 -2 -2 -2 -1 -2 -2 -2 -2 -2 -2 -3 -3 -3 -3 -3 -3 -3 -2 -2 -2 -2 -2 -2 -2 -2 -2 -2 -2 -2 -2 -2 -2 -2 -2 -2 -2 -2 -2 -1 -1 -1 -1
3 3 3 3 3 3 3 3 3 2 2 2 2 2 2 2 2 2 2 1 1 1 1 0 0 -0 -0 -0 -1 -1 -1 -1 -1 -1 -1 -1 -1 -1 -2 -2 -2 -2 -2 -2 -2 -2 -2 -2 -2 -2 -2 -2 -2 -3 -3 -3 -3 -3 -3 -3 -3 -3 -3 -3 -3 -3 -3 -2 -2 -2 -2 -2 -2 -2 -2 -2 -2 -2 -2 -2 -2 -2 -2 -2 -2 -2
3 3 3 3 3 3 3 3 3 2 2 2 2 2 2 2 2 2 2 1 1 1 1 0 -0 -1 -1 -1 -1 -1 -1 -2 -2 -2 -2 -2 -1 -1 -2 -2 -2 -2 -2 -2 -2 -2 -2 -2 -2 -2 -2 -2 -3 -3 -3 -3 -3 -3 -3 -3 -3 -3 -3 -3 -3 -3 -3 -3 -3 -3 -3 -2 -2 -2 -2 -2 -2 -2 -2 -2 -2 -2 -2 -2 -2 -2
3 3 3 3 2 2 2 2 2 2 2 2 2 1 2 1 1 1 1 1 0 0 0 -0 -1 -1 -2 -2 -2 -2 -2 -2 -2 -2 -2 -2 -2 -1 -2 -2 -2 -2 -2 -2 -2 -2 -2 -2 -2 -2 -3 -3 -3 -3 -3 -3 -3 -3 -3 -3 -3 -3 -3 -3 -3 -3 -3 -3 -3 -3 -3 -3 -3 -3 -3 -3 -3 -3 -3 -3 -3 -3 -2 -2 -2 -2
3 3 2 2 2 2 2 2 2 2 2 2 1 1 1 1 1 0 0 -0 -0 -0 -0 -1 -1 -2 -2 -2 -2 -2 -2 -2 -2 -2 -2 -2 -2 -2 -2 -2 -2 -2 -2 -2 -2 -2 -2 -2 -2 -2 -3 -3 -3 -3 -3 -3 -3 -3 -3 -2 -3 -3 -3 -3 -3 -3 -3 -3 -3 -3 -3 -3 -3 -3 -3 -3 -3 -3 -3 -3 -3 -3 -3 -3 -3 -2
2 2 2 2 2 2 2 2 1 1 1 1 1 1 1 1 0 0 -0 -0 -1 -1 -1 -1 -1 -2 -2 -2 -2 -2 -2 -2 -2 -2 -2 -2 -2 -2 -2 -2 -2 -2 -2 -2 -2 -2 -2 -2 -2 -3 -3 -3 -3 -2 -2 -2 -2 -2 -2 -2 -2 -3 -3 -3 -3 -3 -3 -3 -3 -3 -3 -3 -3 -3 -3 -3 -3 -3 -3 -3 -3 -3 -3 -3 -3 -3
1 1 1 1 1 1 1 1 1 1 1 1 1 0 0 0 0 0 -0 -0 -0 -1 -1 -1 -1 -1 -2 -2 -2 -2 -2 -2 -2 -2 -2 -3 -2 -2 -2 -2 -2 -2 -2 -2 -2 -2 -2 -2 -3 -3 -3 -3 -3 -3 -2 -2 -2 -2 -2 -2 -2 -2 -3 -3 -3 -3 -3 -3 -3 -3 -3 -3 -3 -3 -3 -3 -3 -3 -3 -3 -3 -3 -3 -3 -3 -3
0 1 0 0 1 1 1 1 1 0 0 0 0 -0 -0 -0 -0 0 0 -0 -1 -1 -1 -1 -1 -1 -2 -2 -2 -2 -2 -2 -2 -2 -3 -3 -3 -2 -2 -2 -2 -2 -2 -2 -2 -2 -3 -3 -3 -3 -3 -3 -3 -3 -3 -3 -2 -2 -2 -2 -2 -3 -3 -3 -3 -3 -3 -3 -3 -3 -3 -3 -3 -3 -3 -3 -3 -3 -3 -3 -3 -3 -3 -3 -3 -3
-0 -0 -0 -0 -0 0 -0 -0 -0 -0 -0 -0 -1 -1 -1 -1 -1 -1 -1 -1 -1 -1 -1 -1 -2 -2 -2 -2 -2 -3 -2 -2 -2 -2 -3 -3 -3 -2 -2 -2 -2 -2 -2 -2 -2 -3 -3 -3 -3 -3 -3 -3 -3 -3 -3 -3 -3 -3 -2 -3 -3 -3 -3 -3 -3 -3 -3 -3 -3 -3 -3 -3 -3 -3 -3 -3 -3 -3 -3 -3 -3 -3 -4 -4 -4 -4
-0 -0 -0 -0 -0 -0 -0 -1 -1 -1 -1 -1 -1 -1 -1 -1 -1 -1 -1 -1 -2 -2 -2 -2 -2 -2 -2 -2 -3 -4 -2 -2 -2 -2 -3 -3 -2 -2 -2 -2 -3 -3 -3 -2 -2 -3 -5 -4 -3 -3 -3 -3 -3 -3 -3 -3 -3 -3 -3 -3 -3 -3 -3 -3 -3 -3 -3 -3 -3 -3 -3 -3 -3 -3 -3 -3 -3 -3 -3 -3 -3 -3 -4 -4 -4 -4
-1 -1 -1 -1 -1 -1 -1 -1 -1 -2 -2 -1 -1 -1 -1 -1 -1 -2 -2 -2 -2 -2 -2 -2 -2 -2 -3 -2 -3 -2 -1 -1 -2 -2 -3 -3 -3 -3 -3 -3 -3 -3 -3 -2 -2 -3 -5 -4 -3 -3 -3 -3 -3 -3 -3 -3 -3 -3 -3 -3 -3 -3 -3 -3 -3 -3 -3 -3 -3 -3 -3 -3 -3 -3 -3 -3 -3 -3 -3 -3 -3 -4 -4 -4 -4 -4
-1 -1 -1 -1 -2 -2 -2 -2 -2 -2 -2 -2 -2 -2 -2 -2 -2 -2 -2 -2 -2 -2 -2 -2 -3 -3 -3 -3 -2 -2 -2 -2 -2 -2 -3 -3 -3 -3 -3 -3 -3 -3 -3 -3 -3 -3 -3 -3 -3 -3 -3 -3 -3 -3 -3 -3 -3 -3 -3 -3 -3 -3 -3 -3 -3 -3 -3 -3 -3 -3 -3 -3 -3 -3 -3 -3 -3 -3 -3 -4 -4 -4 -4 -4 -4 -4
-2 -2 -2 -2 -2 -2 -2 -2 -2 -2 -2 -2 -2 -2 -2 -2 -2 -3 -3 -3 -3 -3 -3 -3 -3 -3 -3 -3 -3 -3 -2 -2 -2 -3 -3 -3 -3 -3 -3 -3 -3 -3 -3 -3 -3 -3 -3 -3 -3 -3 -3 -3 -3 -3 -3 -3 -3 -3 -3 -3 -3 -3 -3 -3 -3 -3 -4 -3 -3 -3 -3 -3 -3 -3 -3 -3 -3 -3 -4 -4 -4 -4 -4 -4 -4 -4
-2 -2 -2 -3 -3 -3 -3 -3 -3 -3 -3 -3 -3 -3 -3 -3 -3 -3 -3 -3 -3 -3 -3 -3 -3 -3 -3 -3 -3 -3 -3 -3 -3 -3 -3 -3 -3 -3 -3 -3 -3 -3 -3 -3 -3 -3 -3 -3 -3 -3 -3 -3 -3 -3 -3 -3 -3 -3 -3 -3 -3 -3 -3 -3 -3 -4 -4 -4 -4 -3 -3 -3 -3 -3 -3 -3 -3 -3 -4 -4 -4 -4 -4 -4 -4 -4
-2 -2 -3 -3 -3 -3 -3 -3 -3 -3 -3 -3 -3 -3 -3 -3 -3 -3 -3 -3 -3 -4 -4 -4 -4 -3 -3 -3 -3 -3 -3 -3 -3 -3 -3 -3 -3 -3 -3 -3 -3 -3 -3 -3 -3 -3 -4 -4 -4 -4 -4 -3 -3 -3 -3 -3 -3 -3 -3 -4 -4 -4 -4 -4 -4 -4 -4 -4 -4 -4 -4 -4 -4 -4 -3 -3 -3 -3 -3 -3 -3 -4 -4 -4 -4 -4
-2 -3 -3 -3 -3 -3 -3 -3 -3 -3 -3 -3 -3 -3 -3 -4 -4 -4 -4 -4 -4 -4 -4 -4 -4 -4 -4 -4 -4 -4 -4 -4 -4 -4 -3 -3 -3 -3 -3 -3 -3 -3 -3 -4 -4 -4 -4 -4 -4 -4 -4 -4 -3 -3 -3 -3 -3 -3 -3 -4 -4 -4 -4 -4 -4 -4 -4 -4 -4 -4 -4 -4 -4 -4 -4 -4 -4 -3 -3 -3 -3 -3 -3 -3 -4 -4
-3 -3 -3 -3 -3 -3 -3 -3 -3 -3 -3 -3 -4 -4 -4 -4 -4 -4 -4 -4 -4 -4 -4 -4 -4 -4 -4 -4 -4 -4 -4 -4 -4 -4 -4 -4 -4 -4 -4 -4 -4 -4 -4 -4 -4 -4 -4 -4 -4 -4 -4 -4 -4 -3 -3 -3 -3 -3 -3 -4 -4 -4 -4 -4 -4 -4 -4 -4 -4 -4 -4 -4 -4 -4 -4 -4 -4 -4 -4 -3 -3 -3 -3 -3 -3 -3
-3 -3 -3 -3 -3 -3 -3 -3 -3 -3 -4 -4 -4 -4 -4 -4 -4 -4 -4 -4 -4 -4 -4 -4 -4 -4 -4 -4 -4 -4 -4 -4 -4 -4 -4 -4 -4 -4 -4 -4 -4 -4 -4 -5 -5 -5 -5 -5 -5 -4 -4 -4 -4 -4 -4 -4 -4 -4 -4 -4 -4 -4 -4 -4 -4 -4 -4 -4 -4 -4 -4 -4 -4 -4 -4 -4 -4 -4 -4 -4 -4 -4 -3 -3 -3 -3
-3 -3 -3 -3 -3 -3 -4 -4 -4 -4 -4 -4 -4 -4 -4 -4 -4 -4 -4 -4 -4 -4 -4 -4 -4 -5 -5 -5 -5 -4 -4 -4 -4 -4 -5 -5 -5 -5 -5 -5 -5 -5 -5 -5 -5 -5 -5 -5 -5 -5 -5 -4 -4 -4 -4 -4 -4 -4 -4 -4 -4 -4 -4 -4 -4 -4 -4 -4 -4 -4 -4 -4 -4 -4 -4 -4 -4 -4 -4 -4 -4 -4 -4 -3 -3 -3
-3 -3 -3 -3 -3 -4 -4 -4 -4 -4 -4 -4 -4 -4 -4 -4 -4 -4 -4 -4 -4 -4 -4 -4 -5 -5 -5 -5 -5 -5 -5 -5 -5 -5 -5 -5 -5 -5 -5 -5 -5 -5 -5 -5 -5 -5 -5 -5 -5 -5 -5 -5 -5 -5 -5 -5 -5 -5 -5 -5 -4 -4 -4 -5 -5 -4 -4 -4 -4 -4 -5 -5 -5 -4 -4 -4 -4 -4 -4 -4 -4 -4 -4 -4 -3 -3
-3 -3 -3 -3 -4 -4 -4 -4 -4 -4 -4 -4 -4 -4 -4 -4 -4 -4 -4 -4 -4 -4 -4 -4 -4 -5 -5 -5 -5 -5 -5 -5 -5 -5 -5 -5 -5 -5 -5 -5 -5 -5 -5 -5 -5 -5 -5 -5 -5 -5 -5 -5 -5 -5 -5 -5 -5 -5 -5 -5 -5 -4 -4 -4 -4 -4 -4 -4 -5 -5 -5 -5 -5 -5 -4 -4 -4 -4 -4 -4 -4 -4 -4 -4 -4 -3
-3 -3 -3 -4 -4 -4 -4 -4 -4 -4 -4 -4 -4 -4 -4 -4 -4 -4 -4 -4 -4 -4 -4 -4 -4 -5 -5 -5 -5 -5 -5 -5 -5 -5 -5 -5 -5 -5 -5 -5 -5 -5 -5 -5 -5 -5 -5 -5 -5 -5 -5 -5 -5 -5 -5 -5 -5 -5 -5 -5 -5 -4 -4 -4 -4 -4 -4 -5 -5 -5 -5 -5 -5 -5 -4 -4 -4 -4 -4 -4 -4 -4 -4 -4 -4 -4
-3 -3 -4 -4 -4 -4 -4 -4 -4 -4 -4 -4 -4 -4 -4 -4 -4 -4 -4 -4 -4 -4 -4 -4 -5 -5 -5 -5 -5 -5 -5 -5 -5 -5 -5 -5 -5 -5 -5 -5 -5 -5 -5 -5 -5 -5 -5 -5 -5 -5 -5 -5 -5 -5 -5 -5 -5 -5 -4 -4 -4 -5 -5 -4 -4 -4 -5 -5 -5 -5 -5 -5 -5 -4 -4 -4 -4 -4 -4 -4 -4 -4 -4 -4 -4 -4
-3 -3 -4 -4 -4 -4 -4 -4 -4 -4 -4 -4 -4 -4 -4 -4 -4 -4 -4 -4 -4 -4 -4 -5 -5 -5 -5 -5 -5 -5 -5 -5 -5 -5 -5 -5 -5 -5 -5 -5 -5 -5 -5 -5 -5 -5 -5 -5 -5 -5 -5 -6 -6 -6 -6 -6 -5 -5 -4 -4 -4 -4 -4 -4 -4 -4 -5 -5 -5 -5 -5 -5 -5 -5 -4 -4 -4 -4 -4 -4 -4 -4 -4 -4 -4 -4
-3 -3 -4 -4 -4 -4 -4 -4 -4 -4 -4 -4 -4 -4 -4 -4 -4 -4 -4 -4 -4 -4 -5 -5 -5 -5 -5 -5 -5 -5 -5 -5 -5 -5 -5 -5 -5 -5 -5 -6 -6 -6 -6 -6 -6 -6 -5 -5 -5 -6 -6 -6 -7 -7 -6 -6 -5 -5 -4 -4 -4 -4 -4 -4 -4 -4 -4 -4 -4 -4 -5 -5 -5 -5 -4 -4 -4 -4 -4 -4 -4 -4 -4 -4 -4 -4
-3 -3 -4 -4 -4 -4 -4 -4 -4 -4 -4 -4 -4 -4 -5 -5 -5 -5 -5 -5 -5 -5 -5 -5 -5 -5 -5 -5 -5 -5 -5 -5 -5 -5 -5 -5 -5 -6 -6 -6 -6 -6 -6 -6 -6 -6 -6 -6 -6 -6 -6 -7 -7 -7 -6 -5 -5 -5 -4 -4 -4 -4 -4 -4 -3 -4 -4 -4 -4 -4 -5 -5 -5 -5 -5 -4 -4 -4 -4 -4 -4 -4 -4 -4 -4 -4
-3 -4 -4 -4 -4 -4 -4 -4 -4 -4 -4 -4 -4 -5 -5 -5 -5 -5 -5 -5 -5 -5 -5 -5 -5 -5 -5 -5 -5 -5 -5 -5 -5 -5 -5 -5 -5 -6 -6 -6 -6 -6 -6 -6 -6 -6 -6 -6 -7 -7 -7 -7 -7 -7 -6 -6 -5 -5 -4 -4 -4 -4 -4 -3 -3 -3 -4 -4 -4 -5 -5 -5 -5 -5 -5 -5 -4 -4 -4 -3 -4 -4 -4 -4 -4 -4
-3 -4 -4 -4 -4 -4 -4 -4 -4 -4 -4 -4 -4 -5 -5 -5 -5 -5 -5 -5 -5 -5 -5 -5 -5 -5 -5 -5 -5 -5 -5 -6 -6 -6 -6 -6 -6 -6 -6 -6 -6 -6 -6 -6 -6 -6 -7 -7 -7 -7 -7 -6 -6 -6 -6 -6 -5 -5 -5 -5 -5 -5 -4 -4 -3 -3 -4 -4 -5 -5 -5 -5 -5 -5 -5 -5 -5 -4 -4 -3 -3 -3 -4 -4 -4 -4
-3 -4 -4 -4 -4 -4 -4 -4 -4 -4 -4 -4 -5 -5 -5 -5 -5 -5 -5 -5 -5 -5 -5 -6 -6 -6 -6 -5 -5 -5 -6 -6 -6 -6 -6 -6 -6 -6 -6 -6 -6 -6 -6 -6 -6 -6 -7 -7 -7 -7 -7 -6 -6 -6 -6 -6 -6 -5 -5 -5 -5 -5 -5 -4 -4 -4 -4 -5 -5 -5 -5 -5 -6 -6 -5 -5 -5 -5 -4 -4 -3 -3 -3 -4 -4 -4
-3 -4 -4 -4 -4 -4 -4 -4 -4 -4 -4 -5 -5 -5 -5 -5 -5 -5 -5 -6 -6 -6 -6 -6 -6 -6 -6 -6 -6 -5 -6 -6 -6 -6 -5 -5 -6 -6 -6 -6 -6 -6 -6 -6 -7 -7 -7 -7 -7 -6 -6 -5 -5 -5 -5 -6 -6 -6 -6 -6 -5 -5 -5 -4 -4 -4 -5 -5 -5 -5 -5 -5 -6 -6 -5 -5 -5 -5 -5 -4 -4 -4 -4 -4 -4 -4
Height
819 820 821 822 823 824 824 825 826 827 828 829 830 830 830 831 831 832 833 833 834 834 835 836 837 837 838 839 839 839 839 839 839 839 839 839 839 839 839 839 839 839 839 839 839 839 839 839 839 840 840 840 840 840 840 841 841 841 841 842 842 842 843 843 843 843 843 843 843 843 844 844 844 844 844 844 844 845 845 845 845 845 845 846 846 846
819 820 821 822 823 824 824 825 826 827 828 829 829 830 830 830 831 831 832 832 833 834 834 835 836 837 838 838 839 839 839 839 839 839 839 839 839 839 839 839 839 839 839 839 839 839 839 839 839 839 839 840 840 840 840 840 840 840 841 841 841 841 842 842 842 842 842 842 842 843 843 843 843 844 844 844 844 844 845 845 845 845 845 845 846 846
818 819 820 821 822 823 823 824 825 826 827 828 829 829 829 830 830 831 831 832 832 833 834 834 835 836 837 838 839 839 839 839 839 839 839 839 839 839 839 839 839 839 839 839 839 839 839 839 839 839 839 839 839 839 839 839 839 840 840 840 840 841 841 841 841 841 841 841 842 842 842 843 843 843 844 844 844 844 844 844 844 845 845 845 845 846
817 818 819 820 821 822 822 823 824 825 826 827 828 829 829 829 830 830 831 831 831 832 833 834 835 836 837 838 838 839 839 839 839 839 839 839 839 839 839 839 839 839 839 839 839 839 839 839 839 839 839 839 839 839 839 839 839 839 839 839 840 840 840 840 840 840 841 841 841 841 842 842 843 843 843 844 844 844 844 844 844 844 845 845 845 845
817 817 818 819 820 821 822 822 824 824 826 827 828 828 829 829 829 830 830 830 831 832 833 834 835 836 837 837 838 838 838 838 838 838 839 839 839 839 839 839 839 839 839 839 839 839 839 839 839 839 839 839 839 839 839 839 839 839 839 839 839 839 839 839 840 840 840 840 841 841 841 842 842 842 843 843 843 843 844 844 844 844 844 844 845 845
816 817 818 818 819 820 821 822 823 824 825 826 827 828 828 829 829 829 829 830 831 832 833 834 834 835 836 837 837 837 838 838 838 838 838 838 838 839 839 839 839 839 839 838 838 838 838 838 838 839 839 839 839 839 838 838 838 838 838 838 838 839 839 839 839 839 840 840 840 841 841 841 842 842 842 842 843 843 843 843 844 844 844 844 844 845
816 816 817 818 818 819 820 821 823 823 824 825 826 827 828 828 829 829 829 830 831 832 833 833 834 835 836 836 836 836 837 836 837 837 837 838 838 838 838 838 838 838 838 838 838 838 838 838 838 838 838 838 838 838 838 838 838 838 838 838 838 838 838 839 839 839 839 839 840 840 840 841 841 841 842 842 842 842 843 843 843 844 844 844 844 844
815 816 816 817 817 818 819 821 822 823 823 824 825 826 827 828 828 829 829 830 831 831 832 833 834 834 835 835 835 835 835 835 836 836 837 837 838 838 838 838 838 838 838 838 838 838 838 838 838 838 838 838 838 838 838 838 838 838 838 838 838 838 838 838 839 839 839 839 839 840 840 840 841 841 841 841 842 842 842 842 843 843 844 844 844 844
813 814 815 816 816 817 819 820 821 822 822 823 824 825 826 827 827 828 829 830 830 831 832 833 833 834 834 834 835 835 835 835 836 836 837 837 837 837 838 838 838 837 837 837 837 837 838 838 838 838 838 838 837 837 837 837 837 837 837 837 838 838 838 838 838 838 839 839 839 839 839 840 840 840 841 841 841 841 842 842 842 843 843 843 844 844
812 813 814 815 816 817 818 819 819 820 822 823 823 824 825 826 826 828 829 829 830 831 831 832 833 833 834 834 834 834 835 835 835 836 836 837 837 837 837 837 837 837 837 837 837 837 837 837 837 837 837 837 837 837 837 837 837 837 837 837 837 837 838 838 838 838 838 839 839 839 839 839 840 840 840 841 841 841 841 842 842 842 843 843 843 844
812 812 813 814 815 816 817 817 818 819 821 822 823 824 824 825 826 826 827 828 829 830 831 831 832 833 833 833 834 834 834 835 835 835 836 836 836 837 837 837 837 836 837 837 837 837 837 837 837 837 837 837 837 837 837 837 837 837 837 837 837 837 837 838 838 838 838 839 839 839 839 839 840 840 840 841 841 841 841 841 842 842 842 843 843 843
811 812 813 813 814 815 816 816 817 819 820 821 822 823 824 824 825 826 826 827 828 829 829 830 831 832 832 833 833 834 834 834 835 835 835 835 836 836 836 836 836 836 836 836 836 836 836 836 836 836 836 836 836 836 836 836 837 837 837 837 837 837 837 837 838 838 838 838 839 839 839 839 840 840 840 840 841 841 841 841 841 842 842 842 843 843
810 811 812 813 813 814 815 816 817 819 819 820 821 821 822 823 824 825 825 826 827 828 829 829 830 831 832 832 833 833 834 834 834 834 835 835 835 835 835 835 835 835 835 835 835 835 835 835 836 836 836 836 836 836 836 836 837 837 837 837 837 837 837 837 837 838 838 838 838 839 839 839 840 840 840 840 840 841 841 841 841 841 841 842 842 842
809 810 811 812 813 813 814 814 815 817 818 818 819 819 820 822 823 824 825 825 826 827 828 829 830 831 831 832 832 833 833 833 834 834 834 834 834 834 835 835 835 835 835 835 835 835 835 835 835 835 835 836 836 836 836 836 836 837 837 837 837 837 837 837 837 837 837 838 838 838 839 839 839 840 840 840 840 840 840 841 841 841 841 841 842 842
808 809 810 811 811 812 812 813 814 814 815 816 818 819 820 821 822 823 824 825 826 827 828 829 829 830 831 831 832 832 832 833 833 833 834 834 834 834 834 834 834 834 834 834 834 834 834 835 835 835 835 835 835 836 836 836 836 836 837 837 837 837 837 837 837 837 837 837 838 838 839 839 839 839 840 840 840 840 840 840 841 841 841 841 841 841
807 808 809 809 810 810 811 811 812 813 814 815 817 818 819 820 822 822 823 824 825 826 827 829 829 830 831 831 831 831 832 832 832 833 833 833 833 834 834 834 834 834 834 834 834 834 834 834 834 835 835 835 835 835 836 836 836 836 836 836 836 836 836 836 836 837 837 837 837 838 838 839 839 839 839 840 840 840 840 840 840 841 841 841 841 841
806 806 807 808 808 809 810 811 812 813 814 815 816 818 819 819 821 822 823 823 824 825 826 828 829 829 830 830 830 830 831 831 832 832 832 833 833 833 833 834 834 834 833 834 834 834 834 834 834 834 835 835 835 835 835 836 836 836 836 836 836 836 836 836 836 836 837 837 837 838 838 838 839 839 839 839 839 840 840 840 840 840 841 841 841 841
805 805 806 807 807 808 809 810 811 812 813 814 815 817 818 819 820 821 822 823 824 824 825 826 827 828 828 829 829 829 830 830 831 831 832 832 832 832 833 833 833 833 833 833 833 833 834 834 834 834 834 834 835 835 835 835 836 836 836 835 835 835 836 836 836 836 837 837 837 838 838 838 838 838 839 839 839 839 840 840 840 840 840 841 841 841
804 804 805 806 806 807 808 809 810 811 812 813 814 816 817 819 820 821 822 822 823 824 824 825 826 826 827 827 827 828 829 830 830 831 831 831 832 832 832 832 833 833 833 833 833 833 833 834 834 834 834 834 834 835 835 835 835 835 835 835 835 835 835 835 836 836 836 837 837 837 838 838 838 838 838 839 839 839 839 840 840 840 840 840 841 841
803 804 804 804 805 806 807 808 809 809 811 812 813 815 816 818 819 820 821 822 823 823 824 824 825 826 826 827 827 828 829 829 830 830 830 831 831 831 832 832 832 832 832 832 833 833 833 833 834 834 834 834 834 834 835 835 835 835 835 835 835 835 835 835 835 836 836 837 837 837 837 837 838 838 838 838 839 839 839 839 840 840 840 840 840 841
803 803 804 804 805 806 807 807 808 809 810 812 813 814 816 817 818 819 820 821 822 823 823 824 825 825 826 826 827 827 828 829 829 829 830 830 830 831 831 831 832 832 832 832 832 833 833 833 833 833 833 834 834 834 834 834 835 835 835 835 835 835 835 835 835 836 836 836 837 837 837 837 837 837 838 838 838 838 839 839 839 840 840 840 840 840
802 803 803 804 805 805 806 807 808 809 810 811 812 814 815 816 817 819 819 820 821 822 823 824 824 825 825 826 826 827 827 828 829 829 829 830 830 830 830 831 831 831 832 832 832 832 832 833 833 833 833 833 834 834 834 834 834 834 835 835 835 835 835 835 835 836 836 836 836 836 837 837 837 837 837 837 838 838 838 839 839 839 839 839 840 840
802 803 803 804 805 806 806 807 808 809 810 811 812 813 814 815 816 817 819 819 820 821 822 823 824 824 825 825 826 826 827 827 828 829 829 829 829 829 830 830 831 831 831 831 832 832 832 832 832 832 833 833 834 834 834 834 834 835 835 835 835 835 835 835 835 835 836 836 836 836 836 837 837 837 837 837 837 837 838 838 838 839 839 839 839 839
802 802 803 804 805 806 806 807 808 809 810 811 812 814 815 816 817 818 819 819 820 821 822 823 823 824 824 825 825 826 826 827 827 828 828 829 829 829 829 830 830 831 831 831 831 831 832 832 832 832 833 833 834 834 834 834 834 834 834 835 835 835 835 835 835 835 835 836 836 836 836 836 836 837 837 837 837 837 837 837 838 838 838 839 839 839
802 802 803 804 805 806 806 807 808 809 810 811 812 814 815 816 817 818 819 819 820 821 822 822 823 824 824 824 825 825 826 826 827 827 828 828 828 829 829 829 830 830 830 831 831 831 831 831 832 832 832 833 833 834 834 834 834 834 834 834 834 834 835 835 835 835 835 835 835 836 836 836 836 836 836 836 836 836 837 837 837 837 837 838 838 838
802 803 803 804 805 806 806 807 808 809 810 811 812 814 814 815 816 817 818 819 819 820 821 822 822 823 823 824 824 825 825 825 826 827 827 828 828 828 829 829 829 830 830 830 830 831 831 831 831 832 832 832 832 833 833 833 834 834 834 834 834 834 834 835 835 835 835 835 835 835 835 835 836 836 836 836 836 836 836 836 836 837 837 837 837 837
803 803 804 804 805 806 806 807 808 809 810 811 812 813 814 815 816 817 817 818 819 819 820 821 822 822 823 823 824 824 824 825 825 826 827 827 828 828 828 829 829 829 830 830 830 830 830 831 831 831 832 832 832 832 832 833 833 833 834 834 834 834 834 834 834 834 834 835 835 835 835 835 835 835 835 835 835 835 836 836 836 836 836 836 836 836
803 803 804 804 805 806 807 807 808 809 810 811 813 813 814 815 815 816 817 817 818 819 819 820 821 822 822 823 823 823 824 824 825 825 826 827 827 827 828 828 829 829 829 829 830 830 830 830 830 831 831 831 832 832 832 832 833 833 833 833 834 834 834 834 834 834 834 834 834 834 834 834 835 835 835 835 835 835 835 835 835 835 835 835 835 835
803 803 804 804 805 806 807 808 809 809 810 811 812 813 814 814 815 816 816 817 818 819 819 820 820 821 822 822 822 823 823 823 824 824 825 826 826 827 827 828 828 829 829 829 829 829 829 830 830 830 831 831 831 831 832 832 832 832 833 833 833 833 833 833 833 833 833 834 834 834 834 834 834 834 834 834 834 834 834 835 835 834 834 834 834 834
803 803 804 804 805 806 807 808 809 810 811 811 812 813 814 814 815 815 816 817 817 818 819 819 820 820 821 822 822 822 822 822 823 824 824 825 825 826 826 827 828 828 828 829 829 829 829 829 829 830 830 830 831 831 831 831 831 832 832 832 832 832 832 832 833 833 833 833 833 833 833 833 834 834 834 834 834 834 834 834 834 834 834 833 833 833
803 803 804 804 805 806 807 808 809 809 810 811 812 812 813 814 814 815 816 816 817 817 818 819 819 820 820 821 822 822 821 821 822 823 824 824 825 825 826 826 827 827 828 828 828 829 829 829 829 829 829 830 830 830 830 831 831 831 831 831 831 831 831 831 832 832 832 832 832 832 833 833 833 833 833 833 833 833 833 834 834 833 833 833 833 832
803 804 804 805 806 807 807 808 809 809 810 811 812 812 813 814 814 815 815 816 816 817 817 818 819 819 819 820 820 820 820 820 821 822 823 824 824 825 825 826 826 827 827 827 827 827 828 828 828 829 829 829 829 829 830 830 830 830 830 830 830 830 830 830 831 831 831 831 831 832 832 832 832 832 832 832 832 833 833 833 833 833 833 832 832 832
804 804 805 805 806 807 808 808 809 809 810 811 812 813 813 814 814 815 815 815 816 816 817 817 818 818 819 819 819 820 820 820 821 821 822 823 824 824 824 825 825 826 826 827 827 827 827 827 828 828 828 829 829 829 829 829 829 829 829 829 829 829 829 829 830 830 830 830 830 831 831 831 831 831 831 831 832 832 832 832 832 833 832 832 832 832
804 804 805 806 806 807 808 809 809 809 810 811 812 812 813 814 814 814 815 815 815 816 816 817 817 818 818 819 819 819 820 820 820 821 822 822 823 823 824 824 825 825 826 826 826 827 827 827 827 828 828 828 828 828 828 828 829 829 829 829 829 829 829 829 829 829 829 829 830 830 830 830 830 830 830 831 831 831 831 831 832 832 832 832 831 831
804 805 805 806 807 807 808 809 809 810 810 811 812 812 813 813 814 814 814 814 815 815 816 816 817 817 818 818 819 819 820 820 820 820 821 822 822 823 823 824 824 825 825 825 826 826 826 826 827 827 827 827 828 828 828 828 828 828 828 828 828 828 828 828 828 828 829 829 829 829 829 829 829 829 829 830 830 830 830 830 831 831 831 831 831 831
804 805 805 806 807 807 808 809 809 810 810 811 812 812 813 813 813 814 814 814 814 815 815 816 816 817 817 818 818 819 819 819 820 820 821 821 822 822 823 823 824 824 825 825 825 826 826 826 826 826 827 827 827 827 827 827 827 827 827 827 827 827 827 827 828 828 828 828 828 828 828 828 829 829 829 829 829 829 829 829 829 830 830 830 830 830
804 804 805 806 806 807 808 809 809 810 810 811 811 812 812 813 813 813 814 814 814 815 815 815 816 816 817 817 817 818 818 819 819 820 820 821 821 822 822 823 823 824 824 824 825 825 825 826 826 826 826 826 826 826 826 826 827 827 827 827 827 826 826 826 827 827 827 827 827 827 828 828 828 828 828 828 828 828 829 829 829 829 829 829 829 829
804 804 805 805 806 807 808 808 809 810 810 811 811 811 812 812 813 813 813 814 814 814 815 815 815 816 816 817 817 817 818 818 819 819 820 820 821 821 822 822 823 823 824 824 824 824 825 825 825 825 825 825 825 826 826 826 826 826 826 826 826 826 825 825 826 826 826 826 827 827 827 827 827 827 827 827 827 828 828 828 828 828 828 828 828 828
803 804 804 805 806 807 807 808 809 809 810 810 811 811 811 812 812 813 813 813 814 814 814 815 815 815 816 816 817 817 817 818 818 819 819 820 820 821 821 822 822 823 823 823 824 824 824 825 825 825 825 825 825 825 825 826 826 826 826 826 825 825 825 825 825 825 825 826 826 826 826 826 826 826 826 826 827 827 827 827 827 827 827 827 827 827
803 803 804 805 805 806 807 808 808 809 809 810 810 811 811 811 812 812 813 813 813 814 814 814 815 815 816 816 816 817 817 818 818 819 819 819 820 820 821 821 822 822 822 823 823 823 824 824 824 824 824 825 825 825 825 825 825 825 825 825 825 825 824 824 824 824 824 825 825 825 825 825 825 825 825 826 826 826 826 826 826 826 826 826 826 826
802 803 804 804 805 806 806 807 808 808 809 809 810 810 810 811 811 812 812 812 813 814 814 814 815 815 815 816 816 817 817 817 818 818 819 819 819 820 820 820 821 821 821 821 822 822 822 823 823 823 824 824 824 824 824 824 824 824 824 824 824 824 824 824 824 824 824 824 824 824 824 824 824 824 825 825 825 825 825 825 825 825 825 825 825 825
802 803 804 804 805 805 806 807 807 808 808 809 809 809 810 810 811 811 811 812 812 813 814 814 814 815 815 815 816 816 817 817 817 818 818 819 819 819 819 819 820 820 820 820 820 821 821 821 821 822 822 822 822 822 822 822 823 823 823 823 823 823 823 823 823 823 823 823 823 824 824 824 824 824 824 824 824 824 824 824 824 824 825 824 824 825
801 802 803 804 804 805 805 806 807 807 808 808 809 809 809 810 810 810 811 811 812 813 813 814 814 814 815 815 816 816 816 817 817 817 818 818 818 818 819 819 819 819 819 819 819 819 819 820 820 820 820 821 821 821 821 821 821 821 822 822 822 822 822 821 821 822 822 822 822 823 823 823 823 823 823 823 823 823 824 824 824 824 824 824 824 824
801 802 802 803 804 804 805 805 806 806 807 807 808 808 809 809 809 810 810 811 812 812 813 813 814 814 814 815 815 816 816 816 816 817 817 817 817 818 818 818 818 818 818 818 819 819 819 819 819 819 819 820 820 820 819 819 819 819 820 820 821 821 821 821 821 821 821 821 821 822 822 822 822 821 822 822 822 822 823 823 823 823 823 823 823 823
800 801 802 802 803 804 804 804 805 806 806 807 807 808 808 808 809 809 810 810 811 812 812 813 813 814 814 814 814 815 815 815 816 816 816 816 816 817 817 817 817 817 817 817 818 818 818 818 818 818 819 819 819 818 818 818 818 818 819 819 819 819 819 820 820 821 821 821 821 821 821 821 820 820 820 821 821 821 821 822 822 822 822 822 822 822
800 800 801 801 802 803 803 804 804 805 805 806 806 807 807 808 808 809 809 810 810 811 811 812 812 813 813 814 814 814 814 814 815 815 815 815 816 816 816 816 816 816 816 816 817 817 817 817 817 818 818 818 818 817 817 817 817 817 817 818 818 818 818 819 819 819 820 820 820 820 820 819 819 819 819 819 820 820 820 820 821 821 821 821 821 821
799 800 800 801 801 802 803 803 804 804 804 805 805 806 806 807 807 808 809 809 810 810 811 811 811 812 812 813 813 813 814 814 814 814 814 815 815 815 815 815 815 815 815 816 816 816 816 816 817 817 817 817 817 816 815 815 816 816 816 816 817 817 817 817 817 818 819 819 819 819 819 819 818 818 818 818 819 819 819 819 820 820 820 820 820 820
799 799 800 800 801 801 802 802 803 803 804 804 805 805 805 806 807 807 808 808 809 809 810 810 810 811 811 812 812 812 813 813 813 814 814 814 814 814 814 814 814 814 814 814 815 815 815 815 815 816 816 816 815 815 814 814 814 815 815 815 815 815 815 815 816 816 817 817 817 817 817 817 817 817 817 817 817 817 818 818 819 819 819 819 819 819
799 799 799 800 800 801 801 802 802 803 803 803 804 804 805 805 806 806 807 807 808 808 809 809 809 810 810 810 811 811 812 812 812 813 813 813 813 813 813 813 814 814 814 814 814 814 814 814 814 814 814 814 814 814 813 813 813 814 814 814 814 814 814 814 814 815 815 815 815 816 816 816 816 816 816 815 815 815 816 817 817 818 818 818 817 817
798 798 799 799 800 800 801 801 801 802 802 803 803 804 804 804 805 805 806 806 807 807 808 808 809 809 809 809 810 810 810 811 811 811 812 812 812 812 812 812 813 813 813 813 813 813 813 813 812 812 812 812 812 812 812 812 812 812 813 812 812 812 812 812 813 814 814 814 814 814 814 814 814 814 814 814 814 814 814 814 815 816 816 816 816 816
797 798 798 799 799 799 800 800 801 801 802 802 802 803 803 804 804 804 805 806 806 806 807 807 808 808 808 808 809 809 809 809 810 810 810 811 811 811 811 812 812 812 812 812 812 812 812 812 811 811 810 810 810 811 811 811 811 811 811 811 811 811 812 812 812 813 813 813 813 813 813 814 814 814 814 814 813 813 812 813 813 814 814 814 814 814
Wind_Speed
14 15 16 17 20 22 22 21 20 19 18 17 16 15 14 14 13 13 12 12 12 13 12 12 11 11 10 8 7 6 6 6 6 6 6 6 5 4 4 3 2 2 2 2 2 3 3 3 3 3 3 3 3 3 3 3 3 3 3 4 4 4 3 3 3 3 3 3 3 3 3 2 2 1 1 1 2 2 2 2 2 3 3 3 4 4
14 14 15 17 19 21 21 20 19 18 18 17 15 14 14 13 13 12 12 12 11 11 11 11 11 11 11 9 8 7 7 7 7 7 7 6 5 4 3 2 2 2 2 2 3 4 4 4 4 4 4 4 4 4 4 4 4 4 4 4 4 4 4 4 3 3 4 4 3 3 4 3 2 2 1 1 1 1 1 2 2 2 3 3 4 4
14 15 16 17 19 21 21 20 19 18 17 16 15 14 13 12 12 11 11 11 10 9 9 9 10 11 11 10 9 8 8 7 7 7 6 5 4 3 2 2 1 2 2 3 4 4 5 5 5 5 5 4 4 4 4 4 4 4 5 5 5 5 5 5 5 5 5 5 5 4 4 4 3 2 1 1 0 1 1 1 2 2 3 3 4 4
16 17 18 19 19 21 21 20 19 18 16 15 14 13 12 11 11 10 10 9 9 8 8 8 10 11 12 11 10 9 8 8 8 7 6 5 4 3 2 2 1 2 3 4 4 5 5 5 5 5 4 4 4 4 4 4 5 5 5 5 5 6 6 6 6 6 6 6 5 5 5 4 4 3 2 1 1 0 1 1 2 2 3 3 4 4
17 18 19 20 20 20 21 20 19 17 15 14 13 12 11 11 11 10 9 9 8 8 8 9 11 12 13 12 11 10 9 9 8 7 6 5 4 3 2 1 1 2 3 4 4 4 5 5 4 4 4 3 3 3 4 4 4 5 5 5 5 5 5 6 6 6 6 6 5 5 4 4 4 3 3 2 2 2 1 1 2 2 3 3 3 4
16 17 18 19 19 18 20 19 18 16 15 14 13 12 11 11 10 10 9 9 9 9 10 11 13 14 14 14 13 11 10 9 9 8 7 6 5 3 2 0 2 3 4 4 4 4 4 4 4 4 3 3 3 3 3 4 5 5 5 4 4 3 3 4 4 4 4 4 4 4 4 4 4 3 3 3 3 2 2 1 1 2 2 2 3 3
16 17 18 18 18 18 20 19 18 17 16 16 15 13 12 11 11 10 10 10 11 11 13 14 14 15 15 14 14 13 11 11 11 10 8 7 5 3 2 2 4 4 5 4 4 4 4 4 4 3 3 3 2 3 4 4 5 5 4 3 2 1 1 1 2 3 3 4 4 4 4 4 3 3 3 3 3 3 2 2 1 1 2 2 2 3
16 17 18 19 19 19 19 19 18 17 17 17 16 14 13 12 12 11 11 12 12 13 14 15 15 15 15 15 15 14 12 11 11 10 9 7 6 4 4 5 5 5 5 4 4 4 4 4 4 3 3 2 3 3 4 5 5 4 3 2 2 2 1 1 1 2 2 3 3 3 3 3 3 3 3 2 2 2 2 2 1 1 1 2 2 2
18 19 20 20 19 19 19 18 18 18 17 16 15 15 15 15 14 14 13 13 13 14 15 15 16 16 15 15 14 13 12 11 10 9 8 7 6 6 6 6 6 6 5 5 4 4 4 4 3 3 2 2 3 4 5 5 4 3 2 2 2 3 3 2 2 1 1 2 2 3 3 3 3 3 3 2 2 2 2 2 1 0 1 1 2 2
19 19 20 19 20 19 18 17 18 19 17 15 14 14 15 16 17 17 16 15 15 15 15 15 15 15 15 15 14 13 12 10 9 9 8 7 7 6 6 6 6 6 6 5 5 5 5 5 4 3 2 3 3 5 5 5 4 2 1 2 2 2 2 2 2 2 2 1 1 1 2 2 2 2 2 2 2 1 1 1 1 0 1 1 1 1
17 18 18 19 19 20 18 19 20 20 17 15 14 13 15 16 18 18 18 17 17 16 16 15 15 15 15 14 13 13 12 11 10 9 8 8 7 7 6 7 7 7 7 7 7 7 7 6 5 4 4 4 4 5 5 5 3 2 1 1 1 1 1 2 2 2 2 2 2 1 1 1 1 1 1 1 1 0 0 0 0 1 1 1 2 2
16 17 17 18 19 20 19 19 20 20 18 16 14 13 15 17 18 19 19 19 19 18 17 16 15 15 14 14 13 12 12 11 10 9 9 8 7 7 7 8 8 8 8 8 8 8 8 7 6 6 5 5 5 5 5 4 2 1 1 2 2 1 1 0 1 2 2 2 2 2 2 2 2 2 1 1 1 1 1 1 1 1 1 2 2 2
16 17 17 17 18 19 19 19 19 20 18 17 15 15 16 18 20 19 19 20 20 19 18 17 16 15 14 13 13 12 12 11 10 10 9 8 8 8 8 9 9 9 9 8 8 8 7 7 6 6 5 4 4 4 3 2 1 1 1 2 2 2 1 1 1 1 2 2 2 2 3 3 3 2 2 2 2 2 2 2 2 1 1 2 2 2
16 16 16 16 17 18 19 20 20 19 18 18 18 18 19 20 21 20 19 20 20 19 18 17 16 15 14 13 12 12 12 11 10 10 9 9 9 9 9 9 9 9 9 8 8 7 6 5 5 4 4 3 3 3 2 1 0 1 1 1 1 2 2 2 1 1 2 2 2 2 2 3 2 2 2 2 2 2 2 2 1 1 1 2 2 3
16 16 14 13 15 17 19 20 20 20 20 19 19 19 19 20 21 20 19 19 20 19 17 16 15 15 13 13 13 12 12 11 11 10 10 9 9 9 9 9 9 9 8 7 7 6 5 4 4 3 3 2 2 1 1 0 1 1 1 1 1 2 2 2 1 1 2 2 3 3 3 3 2 2 2 1 1 1 1 1 1 1 1 1 2 3
18 17 14 14 15 17 20 21 20 20 20 21 20 19 19 20 20 20 19 20 20 19 17 15 12 11 11 13 13 13 12 12 11 11 10 10 10 10 9 8 7 7 7 6 5 5 4 4 3 3 2 2 2 1 1 0 1 1 1 1 2 2 3 2 1 0 1 2 2 3 3 3 3 2 2 1 1 1 1 1 1 1 1 1 0 1
18 17 16 15 16 18 20 21 21 20 21 21 20 20 20 20 21 20 20 20 21 20 17 14 10 6 6 8 12 14 13 12 12 11 11 10 10 9 8 7 6 6 6 5 5 4 4 4 3 3 2 2 2 2 1 0 0 0 1 2 2 3 3 2 1 1 3 2 2 2 2 3 3 3 2 2 1 1 0 0 0 1 1 1 1 1
18 18 17 16 16 18 20 21 21 21 21 21 21 20 20 20 21 21 20 20 20 20 18 15 11 6 4 4 7 11 13 12 11 11 11 10 9 8 8 6 5 5 5 5 5 4 4 4 3 3 3 3 3 2 1 1 0 1 2 3 3 3 3 2 1 3 4 3 2 1 1 2 2 3 3 2 2 2 1 1 0 0 0 1 1 1
18 19 18 17 17 19 21 22 23 22 22 22 22 21 20 20 20 20 19 19 19 19 17 16 13 8 5 3 5 9 10 9 10 10 10 9 8 8 7 5 5 5 5 5 5 4 4 4 3 3 3 3 3 2 1 1 1 2 3 3 3 3 3 2 2 3 4 3 2 1 2 1 1 2 2 3 3 2 2 1 1 1 1 1 1 1
18 19 20 19 18 19 20 22 23 23 23 22 22 22 21 20 20 19 19 19 19 18 17 16 14 11 7 5 5 6 7 6 7 8 9 8 8 7 6 5 5 5 5 4 5 4 4 4 3 3 3 3 3 3 2 1 2 2 3 3 2 2 1 1 3 4 3 2 1 1 1 2 2 2 2 2 3 3 2 1 1 1 2 2 2 2
16 17 17 17 16 17 18 19 20 20 21 21 21 22 22 21 21 20 19 19 18 18 17 15 14 12 9 8 7 6 6 5 6 8 8 8 8 7 6 5 5 5 4 4 4 4 4 3 3 3 3 3 4 3 2 2 2 2 1 1 2 2 3 4 5 4 2 1 1 1 1 1 1 1 1 2 2 2 2 1 1 1 2 3 3 3
10 12 12 12 13 13 13 14 16 18 18 19 21 22 22 21 21 20 20 19 19 18 16 14 12 11 10 9 8 7 7 6 6 7 7 6 7 8 7 6 6 5 5 4 4 4 4 3 3 3 3 4 4 4 3 2 1 1 1 2 2 3 3 3 3 2 1 1 1 1 1 1 1 1 1 2 2 2 2 2 2 2 2 2 3 3
4 5 7 8 9 8 8 9 12 15 16 18 19 19 19 19 19 19 19 18 18 17 16 14 13 12 10 9 9 8 8 7 7 7 6 5 6 8 8 8 7 6 5 5 4 4 3 3 2 3 4 4 4 3 3 3 2 2 2 1 1 1 1 1 1 1 1 1 1 1 1 1 2 2 2 2 2 3 3 3 3 2 2 2 2 3
3 4 5 5 6 6 6 7 10 13 15 16 16 15 14 14 13 13 13 14 15 15 14 14 12 11 9 9 9 9 9 8 8 8 7 5 5 7 8 8 8 7 6 5 5 4 3 3 3 4 6 7 5 3 3 3 3 3 2 2 1 0 0 0 0 0 1 1 1 1 1 1 1 1 1 2 2 3 3 3 3 3 3 3 3 3
6 6 6 6 6 6 6 6 8 11 13 14 14 14 13 11 11 10 11 11 12 13 13 12 11 9 9 9 9 9 10 9 9 9 8 5 5 6 8 9 9 7 6 6 5 4 3 3 4 6 8 9 8 6 5 4 4 4 3 2 2 1 1 1 0 0 0 1 1 1 1 0 0 1 1 1 2 2 2 3 3 3 3 3 4 4
6 7 8 8 7 7 7 7 7 9 11 12 13 13 12 11 11 11 11 12 13 13 12 11 10 9 9 9 9 10 10 10 9 9 9 6 5 6 8 9 9 8 6 5 5 4 3 3 6 8 10 10 10 9 7 6 5 4 3 2 1 1 2 1 1 1 1 1 1 1 1 0 0 1 1 1 1 2 2 2 3 3 3 3 4 5
5 7 8 8 8 8 8 8 8 9 10 11 11 11 11 12 12 12 12 12 12 12 12 10 8 9 10 9 9 10 11 10 10 10 10 8 6 6 8 9 9 8 6 5 4 3 2 4 7 9 11 11 10 9 8 7 5 4 2 1 0 1 2 2 2 2 2 2 2 2 1 1 1 1 1 1 1 2 2 2 2 2 3 4 6 7
7 8 8 9 9 9 9 9 10 10 11 11 11 10 11 11 11 12 12 12 12 12 12 11 9 8 8 8 8 9 10 10 10 10 10 9 6 5 8 9 9 7 6 4 4 3 3 4 7 9 11 12 11 10 9 7 6 4 3 3 3 2 2 3 4 4 4 4 3 3 3 3 2 2 2 2 2 2 2 2 2 3 4 6 8 9
10 11 10 10 10 10 10 10 11 11 11 11 11 11 10 10 10 10 10 10 10 11 11 11 10 7 6 7 8 8 9 10 11 11 11 9 7 6 8 9 8 7 5 4 4 4 4 5 7 9 10 11 12 11 10 9 8 7 6 6 6 6 5 5 5 6 6 5 5 5 5 4 4 4 4 3 3 3 3 3 3 5 6 7 8 9
12 12 12 12 12 12 12 12 12 11 11 11 12 12 11 10 9 8 8 8 9 9 10 11 10 9 6 5 5 6 8 11 12 12 12 10 8 7 8 8 8 7 5 4 3 3 4 6 8 9 10 10 11 11 11 10 9 9 8 8 9 9 8 7 7 7 7 7 7 6 6 6 5 5 5 5 5 4 4 3 4 5 7 7 8 8
11 11 12 12 12 12 13 13 13 12 11 11 11 11 11 10 9 8 7 7 7 8 8 9 9 10 9 5 2 2 5 9 12 13 12 11 9 8 9 8 8 7 6 5 4 2 2 5 7 9 9 9 10 10 10 10 10 10 10 10 11 11 10 9 8 8 8 8 8 8 8 7 7 7 7 6 6 5 4 3 3 5 6 6 7 7
11 11 11 11 11 12 12 13 13 12 11 10 10 9 9 8 7 7 6 6 6 7 7 7 8 9 10 8 5 4 3 6 10 13 13 11 9 8 9 8 8 7 7 6 4 2 2 4 5 8 8 9 9 9 9 10 10 11 11 12 12 12 11 10 9 8 8 9 9 9 9 9 9 8 8 7 6 6 5 3 3 5 6 5 6 7
11 11 11 11 11 11 11 11 11 10 9 8 7 7 6 6 5 5 5 5 6 6 6 7 8 9 10 10 9 7 4 4 8 12 13 11 9 8 9 9 9 8 7 7 6 4 3 3 4 5 7 8 8 9 9 10 10 11 12 12 12 11 10 9 9 8 9 9 9 9 9 9 9 8 8 7 6 6 5 4 4 4 5 6 6 6
11 11 10 10 10 10 10 10 9 8 7 6 6 5 5 5 4 4 4 5 5 5 6 6 7 8 9 11 11 9 6 5 7 10 12 12 10 8 10 10 9 8 7 6 5 5 4 3 3 4 4 6 7 8 9 10 10 11 11 10 10 9 9 8 8 9 9 9 9 9 9 9 8 8 7 7 7 7 6 6 5 4 5 5 6 6
11 11 10 10 10 10 9 9 9 8 7 7 6 5 5 5 4 4 4 4 4 5 5 5 6 6 8 9 10 9 7 6 7 9 11 13 11 9 9 9 9 8 7 6 5 4 4 4 3 3 3 4 5 7 8 8 8 8 8 8 7 7 8 8 8 8 8 9 9 8 8 8 7 7 7 7 7 7 8 7 6 6 6 5 6 6
10 10 10 10 10 10 10 10 9 9 8 8 7 6 6 5 5 5 5 5 4 4 4 5 5 6 6 7 8 8 7 7 7 8 9 11 11 9 8 7 8 8 7 7 6 5 4 3 4 4 5 4 4 5 6 6 5 5 5 6 7 7 8 8 8 8 8 8 8 8 8 7 7 7 7 7 7 8 8 8 8 8 8 7 7 7
9 9 9 9 9 10 10 10 9 9 8 8 7 7 6 6 5 5 5 5 5 5 4 4 4 5 6 6 7 7 8 8 8 8 9 9 10 9 8 7 7 7 6 6 6 5 4 3 4 5 6 5 4 3 4 4 4 4 4 5 7 8 9 9 8 7 7 8 8 8 8 7 7 7 7 7 7 7 8 8 8 9 9 9 9 9
7 7 7 8 8 9 9 9 9 8 8 8 7 7 6 6 5 5 6 6 6 5 4 4 4 4 5 5 6 8 8 8 8 8 9 9 9 9 9 8 7 7 6 6 5 5 5 4 3 4 4 4 4 4 4 4 5 5 6 7 8 9 9 9 8 8 7 7 8 8 8 8 8 8 8 8 8 8 8 8 8 8 9 9 9 9
6 6 6 7 7 7 8 8 8 8 8 7 7 7 6 6 6 6 6 6 6 6 5 4 4 4 4 5 6 7 8 8 8 8 9 9 9 9 9 8 7 7 7 7 6 6 6 5 4 3 3 3 4 5 6 6 7 8 9 9 8 8 9 9 9 8 8 8 8 8 9 8 8 9 9 9 8 8 8 8 7 8 8 8 8 8
5 5 5 6 6 7 7 7 7 7 8 7 7 6 6 6 6 6 6 7 7 6 6 5 5 4 4 4 5 6 7 7 8 8 8 9 9 9 9 8 8 8 7 8 8 8 8 8 9 8 7 6 5 6 8 9 10 12 12 10 7 6 7 8 9 9 9 8 8 9 9 9 9 9 9 9 8 8 7 7 7 7 7 7 7 7
4 4 4 5 6 6 7 7 8 7 7 7 7 6 6 6 6 7 7 7 7 7 6 6 5 5 5 5 5 6 6 7 7 7 8 8 8 8 8 9 9 9 9 9 9 10 10 10 11 11 12 11 11 12 13 13 13 13 12 11 8 7 8 9 10 10 10 9 9 9 9 9 10 10 10 9 9 8 7 7 7 7 7 7 7 7
4 4 4 5 6 7 7 7 8 8 8 7 7 6 6 6 6 7 7 7 7 7 7 6 6 6 6 6 6 6 6 6 7 7 7 7 7 8 8 8 9 9 10 10 10 11 11 11 12 12 12 12 13 14 14 14 14 13 13 12 11 10 8 9 11 11 11 10 10 10 10 10 10 10 10 10 9 8 8 8 8 8 8 8 8 8
5 5 5 6 7 7 8 8 8 8 8 8 7 6 6 6 6 7 7 7 7 7 7 6 6 6 6 6 7 7 7 7 7 7 7 7 7 8 8 9 9 10 10 11 11 12 12 12 12 12 12 11 12 13 15 15 15 14 13 13 11 8 5 5 8 10 11 11 10 10 10 10 10 11 11 11 10 9 9 9 9 8 8 8 8 8
5 6 6 7 8 8 9 9 9 9 8 7 7 6 6 6 7 7 7 7 7 7 7 7 6 7 7 7 8 8 8 8 8 8 8 8 8 8 9 9 10 10 11 12 12 12 12 13 13 12 11 11 12 14 15 16 16 15 14 12 11 9 7 6 7 9 10 11 11 10 10 10 11 12 12 11 11 10 10 10 10 9 9 9 9 9
6 7 7 8 9 9 9 9 9 8 8 7 7 7 7 7 7 7 7 7 7 7 7 7 7 7 8 9 9 9 9 9 9 9 9 9 9 9 9 9 10 10 11 12 12 12 13 13 13 12 11 11 13 14 15 16 16 15 14 12 11 10 11 10 9 9 10 11 11 10 10 11 12 12 12 12 12 12 12 11 11 10 10 10 10 10
6 7 7 8 8 8 8 8 8 8 8 8 7 7 7 7 7 7 8 8 7 7 8 8 8 8 8 8 9 9 9 9 9 9 8 8 8 8 9 9 9 10 10 11 11 12 12 12 12 11 11 11 13 15 15 15 15 15 14 12 11 11 11 10 10 10 11 11 12 11 11 12 12 12 12 12 13 13 13 12 12 11 11 10 10 10
6 6 6 7 7 7 7 8 8 8 8 7 7 7 7 7 8 8 8 8 8 8 9 9 10 10 10 10 9 9 9 9 9 8 7 7 7 7 7 8 9 9 10 10 10 10 10 11 11 11 11 12 13 15 16 16 16 15 14 13 12 12 12 12 11 10 11 12 12 12 11 12 12 12 12 13 14 14 13 13 12 11 11 11 11 11
6 6 6 6 6 6 6 6 7 7 7 7 7 7 8 8 8 9 9 9 9 10 10 10 11 11 12 12 12 11 11 10 9 9 8 7 7 7 7 7 8 9 10 10 10 10 10 10 11 12 13 13 14 15 16 17 17 16 15 14 13 14 14 13 12 11 11 11 11 11 11 11 11 11 12 13 14 14 14 13 12 11 11 11 11 11
6 6 6 6 6 6 6 6 6 6 6 6 7 7 8 8 9 9 10 10 10 11 11 11 12 12 13 13 13 13 13 12 12 11 10 10 9 8 8 8 8 9 9 10 10 10 11 12 13 14 15 15 16 17 18 18 18 17 16 15 15 15 16 15 13 11 10 10 10 10 10 10 11 11 12 12 13 14 14 14 13 12 11 11 11 11
7 7 7 7 6 6 6 5 5 5 5 5 6 7 8 8 9 9 10 10 11 11 11 12 12 12 13 13 13 13 13 13 13 13 12 11 10 10 9 8 8 8 9 9 10 10 11 12 14 15 17 17 18 18 19 19 19 18 17 17 17 16 16 15 13 10 8 8 8 8 9 9 10 11 12 12 13 14 15 15 14 12 11 11 11 11
8 8 8 8 8 7 7 6 6 5 5 5 6 6 7 8 9 9 10 10 10 11 11 11 12 12 12 13 13 12 12 12 12 12 11 11 10 9 9 8 8 8 8 7 7 7 7 8 10 13 16 17 17 17 18 19 19 17 17 18 17 16 15 14 11 8 6 6 7 7 8 8 9 10 10 11 12 13 15 15 15 13 12 11 11 11
Wind_Direction
214 215 215 213 207 201 199 204 208 210 213 215 216 217 218 219 218 218 218 220 222 221 218 216 212 206 197 184 175 171 171 161 148 138 131 128 129 129 122 110 91 65 34 7 352 345 338 332 327 322 315 307 296 286 273 257 234 207 186 171 161 151 141 132 132 134 139 141 148 156 161 168 166 158 151 111 87 72 56 41 35 31 28 26 27 28
207 206 204 205 203 199 198 202 207 210 213 216 216 217 217 216 215 215 217 221 223 224 220 216 208 200 193 183 175 171 170 162 152 142 136 136 137 135 124 108 78 44 14 356 344 338 331 327 323 320 317 312 306 297 287 275 259 239 220 205 194 185 180 173 170 170 173 178 176 173 175 187 193 186 159 132 103 69 47 39 33 27 21 18 17 14
193 192 193 196 198 197 197 199 204 208 213 215 216 216 215 213 212 214 217 220 222 222 220 214 202 193 188 180 174 171 171 165 157 150 147 145 142 135 123 103 70 32 3 347 338 333 328 324 321 319 316 312 308 302 294 283 273 260 246 231 219 210 204 199 196 195 196 198 197 195 195 200 204 201 186 165 129 46 16 15 14 12 9 8 8 6
185 184 187 190 193 196 198 199 201 205 208 210 212 211 211 210 210 211 214 214 213 212 210 200 189 183 181 176 172 169 170 167 163 158 155 148 141 134 123 103 59 15 353 344 337 333 330 327 324 323 321 318 312 305 296 289 282 276 267 254 241 230 222 217 215 214 214 214 213 212 210 212 213 214 216 222 235 287 333 345 353 357 358 358 360 359
184 184 186 186 187 192 198 200 200 201 201 201 202 203 205 206 206 206 206 204 200 195 190 180 175 175 176 172 168 165 166 166 164 161 158 153 149 144 132 106 8 349 344 341 339 337 334 331 330 330 329 327 320 308 300 293 291 290 285 278 265 250 239 230 226 224 224 225 228 228 227 225 224 227 231 236 241 250 279 306 328 341 345 346 349 352
183 184 186 183 183 187 193 196 197 196 193 193 195 197 198 201 202 198 192 188 185 181 176 170 169 170 171 169 164 160 157 160 161 161 162 162 162 161 162 289 329 336 341 341 338 337 335 332 332 334 336 333 326 314 306 304 305 306 305 300 288 270 251 237 227 223 222 224 226 229 231 231 229 231 234 237 239 243 253 277 307 329 338 341 343 348
179 182 183 181 183 186 189 191 192 192 190 190 191 193 193 195 194 190 183 180 177 175 171 169 168 168 169 167 164 159 157 164 170 173 176 179 183 193 236 296 319 330 336 336 335 332 331 329 331 335 338 335 325 315 312 314 319 324 326 326 320 300 251 217 208 206 207 211 215 217 221 223 224 226 228 233 234 237 239 251 276 315 338 343 346 351
173 178 181 181 182 183 184 186 189 192 193 193 192 190 188 187 185 183 180 177 175 174 172 170 169 168 169 169 169 169 171 178 185 191 198 205 217 238 270 297 313 323 329 330 328 324 322 322 325 331 335 329 316 309 311 319 327 337 349 8 33 60 87 113 146 177 189 197 201 206 210 211 213 216 219 225 229 232 231 233 245 309 345 353 357 2
173 175 180 183 181 179 179 183 187 192 195 198 197 191 185 181 181 181 179 177 175 175 174 173 171 171 172 174 177 181 186 192 199 206 216 227 240 257 277 295 310 318 323 321 317 314 314 316 317 322 326 320 310 307 311 321 331 345 14 53 73 80 84 88 98 119 157 177 189 199 202 204 205 206 209 215 223 232 237 233 231 295 9 11 17 24
178 176 177 181 183 181 178 180 186 192 196 201 202 198 190 183 180 180 181 180 178 177 177 177 177 176 178 181 186 193 200 207 214 222 230 239 250 263 279 295 307 314 316 313 308 305 305 305 306 305 300 298 300 304 310 323 335 349 34 76 88 89 92 94 96 102 114 132 155 179 194 201 202 204 203 207 221 237 253 252 228 142 55 47 53 60
177 178 176 178 182 184 183 183 186 189 194 199 202 201 196 189 185 182 181 182 181 180 181 182 183 184 185 189 195 203 211 218 226 234 240 247 256 268 282 297 306 311 312 308 304 301 299 296 293 289 283 281 285 295 306 321 333 353 59 70 69 70 83 103 111 111 110 114 119 128 144 156 166 175 181 188 187 193 216 185 143 120 100 99 96 89
174 177 177 178 181 183 185 187 187 188 191 193 194 194 195 193 191 189 185 183 182 182 183 185 188 190 193 197 202 209 217 224 232 239 246 253 262 274 288 299 306 309 308 305 301 298 296 294 291 288 285 281 279 286 300 315 327 16 73 61 43 23 20 87 128 126 118 119 122 123 122 119 116 115 127 138 140 138 141 131 121 114 111 117 119 112
177 177 178 180 181 183 184 184 184 185 189 190 190 190 192 193 194 193 189 187 185 184 186 187 190 194 198 203 207 213 220 227 233 240 248 257 267 279 290 299 303 305 304 301 298 295 294 293 292 290 289 282 278 281 294 307 324 69 73 54 26 354 323 283 196 161 147 138 134 131 127 120 110 103 109 124 132 136 132 123 114 111 115 127 131 129
174 175 176 178 181 185 185 184 181 182 187 192 195 196 195 194 194 194 191 189 187 187 189 189 191 195 200 205 211 217 223 229 235 242 249 258 268 279 289 296 299 299 298 296 294 292 291 290 289 288 287 281 275 276 287 291 16 73 52 31 355 322 303 289 254 199 175 164 155 148 143 134 121 107 104 118 128 132 130 123 113 103 111 140 150 150
172 172 174 179 183 186 188 188 186 187 192 196 199 200 198 194 193 193 191 188 187 188 190 192 194 198 202 206 212 218 224 230 236 241 249 258 268 277 286 291 293 293 292 291 288 286 286 284 282 280 281 274 263 253 255 331 49 41 9 330 302 295 294 297 286 231 191 178 169 164 160 158 147 131 113 105 113 127 131 128 115 94 77 119 157 164
178 177 179 184 188 190 192 192 192 192 194 197 198 198 196 192 192 192 191 188 186 187 187 188 191 198 207 212 215 218 223 229 236 242 250 258 268 276 283 287 288 287 285 282 278 276 277 276 273 274 272 260 241 226 216 79 40 7 308 282 279 285 292 299 299 218 157 162 166 169 172 174 170 163 147 129 121 129 128 119 101 76 43 36 102 168
183 184 186 188 190 193 195 195 195 196 196 196 196 196 195 193 192 192 192 189 186 185 185 184 181 185 205 216 219 221 223 228 236 244 251 257 265 273 279 282 279 275 273 269 266 265 266 266 266 267 266 254 239 228 208 114 46 307 266 263 271 281 290 293 272 124 108 105 120 151 172 180 184 183 178 164 157 156 151 108 77 58 33 7 359 341
188 190 191 191 193 194 196 196 197 198 199 196 195 195 195 195 194 193 193 191 187 184 184 186 186 181 182 190 214 222 224 225 233 242 249 252 258 266 272 273 268 262 257 254 255 256 258 259 261 265 266 259 242 224 190 104 61 257 253 261 270 281 287 279 190 126 106 93 89 105 138 170 186 192 192 188 179 175 178 199 248 274 273 277 294 306
195 197 197 196 197 199 199 198 199 200 199 197 195 193 192 193 193 193 193 194 192 189 188 189 191 193 191 187 209 220 222 222 228 236 240 243 248 255 262 260 254 247 242 242 246 250 252 255 259 264 265 253 230 200 151 134 203 234 252 268 279 286 284 259 161 121 104 94 94 106 117 131 156 179 193 194 189 183 177 187 220 250 258 262 264 266
205 205 205 205 204 203 202 204 206 206 203 201 197 193 189 190 191 191 192 194 195 195 196 196 198 203 210 214 220 224 224 221 224 228 231 234 238 245 249 244 236 231 230 233 239 245 250 255 260 263 256 230 198 169 142 170 220 244 264 287 303 309 288 151 124 110 99 99 113 120 124 131 139 151 173 185 189 189 180 177 200 237 247 248 247 246
215 214 215 216 213 208 206 210 211 211 209 205 198 193 190 190 191 192 195 197 198 199 201 202 204 208 215 218 220 224 230 225 219 220 225 229 233 237 237 230 223 220 222 228 237 245 252 259 262 257 237 205 179 160 147 195 234 263 312 1 29 53 80 104 108 106 105 120 140 146 149 151 155 159 168 177 185 186 187 181 190 216 233 235 234 232
226 222 219 220 220 219 219 217 213 211 209 205 199 194 192 192 193 196 200 203 204 204 203 203 205 209 215 218 220 226 235 228 219 219 226 226 230 231 227 219 213 211 216 228 240 250 259 265 262 240 208 185 166 153 154 177 177 73 51 42 48 62 79 94 100 101 103 121 152 170 185 194 199 199 205 203 202 201 199 192 196 207 219 228 229 230
229 223 214 213 217 222 227 222 212 207 205 205 203 201 201 200 202 204 207 209 210 208 207 206 207 210 215 218 223 229 235 233 229 227 228 221 224 226 220 212 206 206 215 231 246 258 267 266 244 202 173 154 137 131 150 152 139 123 114 94 70 64 76 101 112 116 118 120 140 174 199 211 214 219 225 228 228 226 222 215 213 215 219 228 235 240
153 160 177 187 192 198 207 209 205 200 199 200 202 204 207 209 212 214 215 214 213 211 209 207 206 207 213 218 221 225 230 233 231 227 226 225 225 222 215 207 202 205 218 234 249 264 270 252 208 175 158 143 129 123 149 153 154 155 156 151 149 134 72 53 108 151 157 152 149 155 177 203 216 225 229 233 236 236 235 232 233 233 232 231 234 239
148 144 149 156 160 165 173 186 193 194 193 193 195 198 201 203 206 207 207 206 206 206 205 203 199 198 206 214 216 219 226 230 229 224 222 223 220 215 212 204 201 206 221 238 253 264 265 222 186 172 162 153 145 139 146 160 167 169 165 161 151 144 143 142 154 172 176 177 173 168 171 182 207 221 233 234 236 237 240 238 240 242 242 242 238 235
157 150 148 150 153 155 158 166 177 185 187 188 190 193 195 195 195 194 194 195 197 198 197 194 192 197 207 213 215 219 226 229 228 224 221 217 211 207 207 204 204 210 224 241 256 264 252 202 183 176 172 171 167 162 160 166 172 174 171 165 158 156 158 158 156 158 162 169 169 168 171 174 207 228 237 239 239 239 241 242 244 245 246 245 240 234
157 153 152 154 156 157 156 159 166 174 179 183 187 190 192 192 191 189 188 191 194 196 195 190 194 204 211 216 220 223 227 227 225 222 219 216 211 206 205 204 206 212 226 243 256 260 236 197 188 185 183 187 189 188 184 184 184 187 199 246 279 199 180 178 176 179 183 185 185 188 187 190 205 230 245 251 249 247 245 246 244 243 240 238 235 233
143 146 148 151 155 157 156 158 162 168 173 177 182 187 192 195 193 191 192 195 198 199 200 199 202 208 211 214 221 228 229 225 221 217 212 209 209 207 204 203 205 211 222 238 251 252 230 201 195 195 195 199 204 209 212 214 218 229 256 293 308 297 249 216 206 203 203 204 206 207 207 209 213 222 234 242 248 252 252 250 246 240 237 238 238 238
137 138 141 145 150 153 154 157 161 166 170 174 178 183 191 197 199 200 201 203 203 203 206 208 211 212 212 214 221 228 229 223 217 211 207 203 204 206 203 201 202 207 215 229 242 241 226 210 203 202 205 208 213 219 225 231 239 249 266 288 302 304 288 259 237 225 219 218 218 219 219 222 223 228 230 232 236 242 246 247 247 249 249 251 253 254
142 144 146 150 152 154 155 156 157 160 165 173 179 184 190 197 200 201 204 208 209 210 212 216 217 214 210 211 221 231 231 222 214 208 205 201 200 201 203 199 200 204 208 211 210 209 213 213 210 208 210 215 220 226 232 238 245 255 268 284 297 301 296 281 263 248 239 235 234 234 235 236 238 241 242 239 239 242 246 247 253 260 264 268 270 272
149 151 152 153 155 158 159 158 156 156 161 173 182 188 193 199 202 202 204 209 213 215 216 218 218 214 208 200 191 219 229 217 209 205 203 201 200 202 202 197 198 203 206 201 189 180 195 202 207 211 213 220 226 233 239 244 251 260 271 284 293 296 294 287 276 264 255 251 250 252 253 255 256 257 257 253 248 243 242 244 252 261 268 274 279 283
153 153 151 152 154 158 160 161 162 164 169 177 185 190 196 203 207 210 212 215 217 217 217 216 216 215 213 208 205 209 217 208 203 202 201 198 199 202 203 198 197 200 207 207 207 197 170 167 191 206 214 221 230 239 247 252 258 266 275 283 289 290 288 284 277 268 262 260 261 263 265 266 267 267 265 260 251 240 231 228 240 255 266 271 277 283
154 153 152 152 154 157 160 163 168 174 181 186 191 196 203 210 215 219 222 223 224 223 220 217 215 215 216 217 219 222 227 210 201 200 200 197 197 200 203 201 200 200 206 211 218 217 192 166 176 198 211 222 232 242 251 258 264 270 276 282 285 286 283 279 273 268 265 265 267 268 270 270 270 268 265 257 247 235 227 221 228 248 262 268 272 277
156 155 156 156 157 159 162 167 173 180 189 197 204 211 219 226 231 233 233 233 232 229 225 222 220 218 219 220 223 226 231 220 205 200 200 200 198 199 203 203 203 205 206 210 215 220 217 205 194 194 206 221 233 243 252 259 265 270 275 279 281 281 278 275 271 270 269 270 270 271 271 270 268 266 261 253 242 232 228 222 219 229 248 262 269 273
160 161 162 164 165 167 170 175 181 187 195 203 212 221 228 234 238 240 238 235 233 230 227 225 224 223 223 224 224 226 230 224 211 203 201 202 203 204 205 206 209 212 211 212 213 215 218 220 220 220 227 235 241 246 250 255 261 266 272 277 279 279 277 274 272 271 271 271 271 271 269 268 265 262 258 252 244 237 233 227 222 221 227 243 258 267
169 169 172 174 177 180 183 187 192 198 203 209 215 221 226 229 231 231 229 227 225 224 224 224 225 225 224 223 222 221 222 220 213 205 201 203 206 209 209 212 216 217 217 218 219 220 221 232 248 261 269 270 261 251 247 247 250 258 272 283 288 286 281 277 274 271 269 267 266 265 264 263 262 259 257 255 251 248 245 242 236 232 228 229 238 250
179 181 184 188 191 194 197 201 205 208 210 213 217 221 224 226 226 224 221 218 216 216 219 224 228 228 224 219 213 210 209 209 207 203 201 202 207 212 215 218 221 222 220 222 225 229 234 244 262 275 279 272 258 242 236 241 245 253 270 292 295 291 284 278 273 267 262 259 257 257 257 257 256 256 257 258 258 258 257 255 252 249 245 240 238 241
190 193 197 202 205 207 209 211 212 212 212 213 217 222 226 229 228 225 219 215 213 212 214 222 228 229 223 216 211 208 205 203 201 199 198 201 207 214 220 222 226 229 229 231 236 242 247 249 258 267 266 262 253 244 240 248 253 261 276 291 293 287 279 273 268 263 257 252 250 249 249 250 252 254 255 257 259 261 261 260 260 258 257 254 251 249
197 201 206 210 213 216 216 216 215 213 212 214 218 225 231 233 233 227 221 215 212 212 213 217 222 223 218 210 207 206 206 203 201 198 197 200 207 214 221 225 229 233 238 242 247 252 254 251 249 251 260 263 259 257 259 263 268 275 285 294 294 282 268 263 259 255 252 247 243 241 242 245 248 250 252 255 257 259 259 260 259 259 260 262 263 262
202 208 212 214 217 217 217 216 214 213 214 217 223 230 234 235 232 227 219 214 211 211 214 216 218 218 212 206 203 203 204 204 203 201 199 201 208 215 222 226 230 235 242 248 253 256 257 255 255 256 259 263 267 268 271 275 280 285 292 299 294 268 255 253 251 250 249 245 239 236 236 241 244 247 250 253 254 254 253 252 251 252 255 258 262 265
210 212 213 213 216 218 219 217 215 214 217 222 227 232 235 232 228 222 216 212 210 210 212 215 216 215 213 208 204 203 203 204 204 204 204 207 214 220 227 231 236 240 244 249 253 256 257 257 258 261 262 265 268 272 273 276 281 286 290 293 288 273 256 247 245 246 245 241 236 233 233 238 242 246 248 250 249 247 245 242 240 242 248 252 257 259
218 217 214 214 216 218 218 217 216 217 220 224 228 231 231 227 220 216 213 210 210 211 213 214 215 215 213 212 210 209 208 207 208 209 211 216 222 229 235 240 243 245 248 250 252 254 255 256 257 258 261 264 267 270 272 275 277 279 282 285 287 285 268 247 240 239 238 234 231 230 232 236 241 244 246 245 243 242 240 238 238 240 245 250 256 261
219 216 212 212 213 213 213 214 216 217 220 223 226 227 225 220 215 211 210 209 210 211 212 214 216 218 219 219 218 217 217 218 218 219 223 228 234 240 244 248 250 250 251 251 251 252 253 254 255 255 258 261 263 265 268 272 274 274 276 280 284 286 283 245 232 229 227 226 226 228 232 238 243 245 245 242 240 237 237 238 241 243 248 253 259 264
209 204 203 204 206 208 210 212 214 216 219 221 223 222 220 216 212 209 209 208 209 210 211 213 216 222 225 227 227 226 225 227 228 231 234 238 243 247 250 252 253 253 253 252 252 252 252 252 253 254 256 258 259 261 264 268 270 272 274 278 277 271 260 246 232 223 219 220 222 228 235 242 245 246 246 243 239 236 236 238 242 246 252 257 263 268
202 199 199 202 204 207 209 211 213 216 218 220 221 220 218 214 211 210 210 209 210 211 211 214 217 223 228 233 234 233 233 233 234 237 239 243 246 249 250 251 251 252 253 254 255 255 255 255 256 256 257 256 256 258 260 264 268 271 274 278 280 276 267 256 244 231 223 221 225 232 240 244 248 250 249 246 242 239 238 239 242 246 252 258 264 269
202 199 198 201 203 205 207 210 212 215 218 220 220 220 218 215 214 213 214 214 214 215 216 220 223 225 228 234 236 237 238 239 240 240 240 241 242 244 246 247 249 250 253 255 256 257 257 258 259 259 257 256 256 257 258 261 265 269 273 278 282 282 277 266 253 242 236 234 236 241 245 247 250 253 253 249 245 241 241 241 243 246 250 256 263 270
200 197 196 198 200 202 205 209 212 215 218 219 219 219 218 218 217 218 219 221 222 223 225 229 232 234 236 238 239 240 240 242 245 246 242 237 235 236 239 244 248 250 252 254 255 256 257 257 257 256 254 252 252 255 260 264 265 267 271 276 280 281 279 273 262 252 248 247 247 248 250 251 254 256 255 253 249 246 244 243 243 246 250 256 263 271
200 197 196 197 197 200 203 206 210 212 215 215 216 217 219 220 221 222 224 226 228 230 232 235 238 241 244 246 247 248 248 247 248 249 249 243 237 236 238 243 248 250 251 252 252 251 252 252 251 249 248 248 248 252 258 263 266 269 271 275 277 276 275 272 268 262 258 255 252 251 250 252 253 255 256 257 255 252 248 244 244 247 252 259 266 273
206 203 201 201 201 200 201 203 206 209 211 211 212 214 217 220 223 225 228 231 233 235 237 240 243 246 248 250 251 252 253 252 251 250 250 247 244 242 242 245 248 249 249 248 246 245 247 248 248 248 248 249 250 252 257 261 265 268 270 271 272 272 272 272 271 268 264 257 251 247 245 246 248 251 257 263 265 262 257 252 250 252 257 263 269 275
214 212 211 209 209 207 206 206 206 207 208 208 209 212 216 221 225 228 231 234 237 240 242 245 248 250 252 254 255 254 253 252 251 250 249 247 245 243 243 245 245 245 243 241 240 241 246 250 252 253 254 253 252 253 255 258 262 265 266 267 268 269 272 274 275 273 267 257 247 241 239 241 245 250 257 264 269 270 268 265 263 263 265 269 273 278
221 220 220 219 218 216 215 213 212 211 210 210 210 213 218 223 226 230 233 236 239 243 246 248 250 251 253 255 256 256 254 253 252 251 249 246 243 242 241 241 241 239 235 232 232 238 246 256 263 265 264 260 257 256 254 254 257 259 260 264 266 269 271 275 277 276 269 257 248 242 239 240 244 251 257 263 269 275 278 278 277 276 276 277 280 283